Location: Dürabuch
(48.2640°N, 11.2185°E)
Time: 23:05:13
(UTC+00:00)

USA 267 - Pass Details

Date: 23 May 2024
Orbit: 1100 x 1107 km, 123.0° (Epoch: 21 May)

Event Time Altitude Azimuth Distance (km) Brightness Sun altitude
Rises 00:14:59 0° 56° (NE) 3,922 6.9 -19.7°
Reaches altitude 10° 00:17:29 10° 54° (NE) 2,963 6.3 -19.6°
Maximum altitude 00:23:58 69° 333° (NNW) 1,175 3.5 -19.2°
Enters shadow 00:30:21 10° 252° (WSW) 2,924 5.1 -18.9°
